Date,TemperatureHighF,TemperatureAvgF,TemperatureLowF,DewpointHighF,DewpointAvgF,DewpointLowF,HumidityHigh,HumidityAvg,HumidityLow,PressureMaxIn,PressureMinIn,WindSpeedMaxMPH,WindSpeedAvgMPH,GustSpeedMaxMPH,PrecipitationSumIn
2013-11-1,56,48,42,55,46,39,96,92,87,29.66,28.95,23,2,23,1.13
2013-11-2,42,38,32,39,34,30,96,87,72,30.17,29.66,11,2,11,0.03
2013-11-3,46,34,26,33,30,25,97,84,59,30.42,30.17,12,1,12,0.00
2013-11-4,50,42,35,34,31,26,88,66,41,30.43,30.17,18,3,21,0.00
2013-11-5,59,52,46,48,44,34,89,75,62,30.27,29.99,15,-6,15,0.02
2013-11-6,55,47,36,53,44,32,95,91,81,29.99,29.60,11,3,17,0.08
2013-11-7,39,36,34,34,32,30,93,83,73,30.09,29.97,14,1,16,0.11
2013-11-8,39,35,32,34,31,29,95,86,67,30.22,30.08,6,0,9,0.09
2013-11-9,46,40,34,44,37,30,95,87,76,30.09,29.65,17,2,22,0.56
2013-11-10,42,39,33,36,33,29,91,78,61,30.19,29.79,23,4,23,0.13
2013-11-11,40,31,26,36,26,18,96,82,65,30.39,29.97,20,4,25,0.20
2013-11-12,28,27,24,24,20,17,91,75,64,30.56,30.39,17,3,17,0.00
2013-11-13,40,32,22,30,24,19,90,73,53,30.47,29.93,16,2,18,0.02
2013-11-14,46,41,36,36,32,27,80,70,61,29.95,29.82,8,2,15,0.04
2013-11-15,54,43,34,41,36,32,92,77,57,29.96,29.85,12,1,12,0.00
2013-11-16,55,46,35,51,42,32,90,85,77,29.98,29.54,22,3,22,0.09
2013-11-17,63,55,44,60,53,42,96,92,85,29.55,28.97,27,4,27,0.55
2013-11-18,44,36,32,42,29,22,90,73,61,30.13,29.23,25,7,25,0.57
2013-11-19,38,30,26,26,23,21,92,74,58,30.38,30.13,16,2,16,0.00
2013-11-20,45,36,30,31,27,25,81,71,52,30.38,30.21,15,2,15,0.00
2013-11-21,44,40,36,39,36,30,95,83,71,30.22,30.16,6,0,7,0.02
2013-11-22,41,33,28,40,30,24,95,89,76,30.37,30.17,16,2,16,0.08
2013-11-23,31,20,16,26,15,9,94,82,67,30.53,30.23,23,6,23,0.00
2013-11-24,23,19,15,18,14,9,89,79,68,30.57,30.18,16,3,16,0.00
2013-11-25,33,30,23,30,24,16,90,80,63,30.18,29.88,17,3,19,0.00
2013-11-26,34,29,21,32,26,18,95,89,83,30.08,29.92,16,2,16,0.00
2013-11-27,23,20,9,20,14,7,93,78,61,30.23,30.02,16,3,16,0.00
2013-11-28,25,17,6,20,14,4,93,87,76,30.49,30.22,9,1,9,0.00
2013-11-29,32,21,5,24,16,2,93,83,70,30.66,30.49,10,1,10,0.00
2013-11-30,37,32,25,33,27,20,94,82,77,30.51,30.04,13,2,16,0.03